Home   Weather   Montreal   Past weeks

Flag for Canada Past Weather in Montreal, Quebec, Canada — Yesterday and Last 2 Weeks

Now
34 °F

Drizzle. Fog.


Feels Like: 27 °F
Forecast: 36 / 38 °F
Wind: 8 mph from Northeast

Location: Montreal - Pierre Elliot Trudeau International Aiport

Current Time: Mar 28, 2017 at 4:03:54 am

Latest Report: Mar 28, 2017 at 3:00 am


Visibility: 0 mi

Pressure: 29.90 "Hg

Humidity: 100%

Dew Point: 34 °F

Location of MontrealLocation

Past Weather in Montreal — Graph

°F

Montreal Temperature Yesterday

Maximum temperature yesterday: 39 °F (at 3:00 pm)
Minimum temperature yesterday: 34 °F (at 12:32 am)
Average temperature yesterday: 37 °F

High & Low Weather Summary for the Past Weeks

 TemperatureHumidityPressure
High41 °F (Mar 20, 3:00 pm)100% (Mar 24, 6:16 pm)30.56 "Hg (Mar 24, 6:16 pm)
Low3 °F (Mar 13, 7:00 am)29% (Mar 13, 2:00 pm)29.35 "Hg (Mar 15, 6:00 am)
Average25 °F66%30.12 "Hg
* Reported Mar 13 3:00 am — Mar 28 3:00 am, Montreal, Weather by CustomWeather, © 2017

Note: Actual official high and low records may vary slightly from our data, if they occured in-between our weather recording intervals... More about our weather records

Advertising

Montreal Weather History for the Previous 24 Hours

Scroll right to see more
 ConditionsComfort  
Time TempWeatherWind HumidityBarometerVisibility
3:00 am
Tue, Mar 28
34 °FDrizzle. Fog.8 mph100%29.90 "Hg0 mi
2:25 am34 °FFog.5 mph100%29.92 "Hg1 mi
2:00 am34 °FFog.6 mph100%29.91 "Hg1 mi
1:38 am34 °FDrizzle. Fog.6 mph100%29.91 "Hg1 mi
1:00 am34 °FDrizzle. Fog.7 mph100%29.92 "Hg1 mi
12:19 am36 °FChilly.8 mph93%29.92 "Hg1 mi
12:00 am36 °FLight rain. Fog.7 mph93%29.92 "Hg1 mi
11:15 pm
Mon, Mar 27
36 °FDrizzle. Fog.5 mph100%29.92 "Hg1 mi
10:20 pm37 °FDrizzle. Fog.No wind93%29.93 "Hg1 mi
10:00 pm37 °FChilly.2 mph93%29.93 "Hg1 mi
9:37 pm37 °FDrizzle. Fog.2 mph93%29.93 "Hg1 mi
9:00 pm37 °FDrizzle. Fog.3 mph100%29.93 "Hg1 mi
8:00 pm37 °FDrizzle. Fog.No wind100%29.93 "Hg1 mi
7:00 pm39 °FDrizzle. Fog.3 mph93%29.93 "Hg2 mi
6:24 pm39 °FDrizzle. Fog.3 mph93%29.93 "Hg2 mi
5:00 pm39 °FDrizzle. Fog.3 mph93%29.93 "Hg2 mi
4:00 pm39 °FDrizzle. Fog.5 mph93%29.93 "Hg4 mi
3:00 pm39 °FLight rain. Fog.2 mph93%29.94 "Hg3 mi
2:00 pm37 °FLight rain. Fog.2 mph93%29.96 "Hg3 mi
1:18 pm37 °FLight rain. Fog.3 mph93%29.96 "Hg3 mi
1:00 pm37 °FLight rain. Fog.3 mph93%29.97 "Hg3 mi
12:19 pm37 °FLight rain. Fog.3 mph93%29.98 "Hg3 mi
11:00 am37 °FDrizzle. Fog.6 mph87%30.00 "Hg2 mi
10:29 am37 °FDrizzle. Fog.7 mph87%30.01 "Hg2 mi
10:00 am36 °FLight rain. Fog.6 mph93%30.01 "Hg5 mi
9:00 am36 °FLight rain. Fog.6 mph93%30.02 "Hg6 mi
8:14 am36 °FLight rain. Fog.5 mph93%30.03 "Hg5 mi
8:00 am36 °FLight rain. Fog.6 mph93%30.03 "Hg2 mi
7:21 am36 °FLight rain. Fog.7 mph93%30.04 "Hg2 mi
7:00 am34 °FLight rain. Fog.7 mph100%30.04 "Hg4 mi
6:10 am36 °FLight rain. Low clouds.7 mph87%30.05 "Hg12 mi
6:00 am36 °FLight rain. Mostly cloudy.8 mph87%30.06 "Hg15 mi
5:00 am36 °FOvercast.8 mph81%30.07 "Hg15 mi
4:00 am36 °FOvercast.8 mph81%30.10 "Hg15 mi
Weather by CustomWeather, © 2017

See weather overviewHow to use our weather pages